sat.trackr.live / text

‹ back to catalog

WILDFIRE 4

NORAD 57756 · 2023-133A

PAYLOAD ACTIVE UNKNOWN

§ Identity

Operator
Country
US
Launch date
2023-09-02
Launch site
AFWTR
Launch vehicle
Mass (kg)
RCS (m²)

External: N2YO · Heavens-Above · Gunter

§ Orbital elements

Epoch: 2026-05-25T02:50:19.502592Z

Period
103.87 min
Inclination
81.0037°
Eccentricity
0.0010808
Mean motion
13.86352563 rev/d
Perigee alt
933.5 km
Apogee alt
949.4 km
Semi-major
7,319.6 km
B*
8.7833e-5
RAAN
28.3489°
Arg perigee
59.3608°
Mean anomaly
300.8613°
Rev number
13,792

§ Raw data

WILDFIRE 41 57756U 23133A   26145.11828128  .00000113  00000+0  87833-4 0  99982 57756  81.0037  28.3489 0010808  59.3608 300.8613 13.86352563137928

JSON: /api/v1/satellites/57756 · /tle

For live sub-satellite position, see the globe view (requires WebGL).

§ Visibility from observer

Set your observer location to see the next 7 days of passes ≥ 10°. The values pass through the URL so the page stays shareable.

No JS? Fill the form by hand. The geolocation button needs JavaScript.